Location: Gajan
(43.0218°N, 1.1244°E)
Time: 16:39:32
(UTC+00:00)

FALCON 9 DEB - Pass Details

Date: 22 April 2021
Orbit: 369 x 385 km, 53.0° (Epoch: 12 May)

Event Time Altitude Azimuth Distance (km) Brightness Sun altitude
Rises 19:38:33 0° 219° (SW) 2,206 6.9 -9.6°
Reaches altitude 10° 19:40:37 10° 212° (SSW) 1,360 5.7 -10.0°
Maximum altitude 19:43:32 44° 139° (SE) 521 3.1 -10.4°
Drops below altitude 10° 19:46:28 10° 65° (ENE) 1,368 5.3 -10.9°
Enters shadow 19:47:27 - 61° (ENE) 1,768 5.9 -11.1°
